Location: Cootamundra
(34.6417°S, 148.0250°E)
Time: 09:00:00
(UTC+10:00)

N. Korean satellite - Visible Passes

Search period start: 26 September 2022 00:00
Search period end: 06 October 2022 01:00
Orbit: 427 x 468 km, 97.3° (Epoch: 25 September)

Date Brightness Start Highest point End Pass type
(mag) Time Alt. Az. Time Alt. Az. Time Alt. Az.
26 Sep 8.4 04:11:09 10° NE 04:14:07 30° ESE 04:17:09 10° S visible
27 Sep 10.1 03:38:16 10° ESE 03:38:48 10° ESE 03:39:21 10° ESE visible
27 Sep 7.1 05:08:06 10° NNW 05:11:07 32° W 05:14:14 10° SSW visible
28 Sep 6.8 04:32:11 10° NNE 04:35:29 66° ESE 04:38:53 10° S visible
29 Sep 9.3 03:57:30 10° ENE 04:00:01 20° ESE 04:02:33 10° SSE visible
30 Sep 6.4 04:53:30 10° N 04:56:47 55° W 05:00:11 10° SSW visible
01 Oct 7.9 04:17:59 10° NE 04:21:08 38° ESE 04:24:22 10° S visible
02 Oct 9.9 04:44:02 10° E 04:45:38 13° ESE 04:47:16 10° SE visible
02 Oct 7.4 06:15:10 10° NNW 06:18:02 26° W 06:21:00 10° SW visible
03 Oct 6.4 05:38:50 10° NNE 05:42:12 85° ESE 05:45:41 10° S visible
04 Oct 9.0 05:03:45 10° NE 05:06:33 24° ESE 05:09:24 10° SSE visible
05 Oct 6.7 05:59:58 10° N 06:03:13 44° W 06:06:33 10° SSW visible
